CW6666 Weather Reports


Display with metric or nautical units.
time (UTC)temp
F
wind
direction
speed
MPH
gust
MPH
rain 1hr
in
rain 24hr
in
rain mn
in
humidity
%
barometer
mb
20160525165111 83 61 14.0 15.0 0.00 0.00 0.00 100 1009.5
20160525164611 83 69 13.0 14.0 0.00 0.00 0.00 100 1009.5
20160525164111 83 62 12.0 14.0 0.00 0.00 0.00 100 1009.6
20160525163611 83 61 11.0 14.0 0.00 0.00 0.00 100 1009.6
20160525163113 83 65 12.0 14.0 0.00 0.00 0.00 100 1009.6
20160525162611 83 74 11.0 16.0 0.00 0.00 0.00 100 1009.7
20160525162111 83 63 14.0 16.0 0.00 0.00 0.00 100 1009.7
20160525161611 83 74 11.0 15.0 0.00 0.00 0.00 100 1009.7
20160525161111 83 69 10.0 16.0 0.00 0.00 0.00 100 1009.8
20160525160612 83 67 12.0 16.0 0.00 0.00 0.00 100 1009.8
20160525160113 83 58 14.0 16.0 0.00 0.00 0.00 100 1009.8
20160525155611 83 68 12.0 16.0 0.00 0.00 0.00 100 1010.1
20160525155112 83 53 13.0 16.0 0.00 0.00 0.00 100 1010.1
20160525154112 83 69 11.0 16.0 0.00 0.00 0.00 100 1010.2
20160525153112 83 62 12.0 15.0 0.00 0.00 0.00 100 1010.2
20160525152613 84 58 12.0 14.0 0.00 0.00 0.00 100 1010.3
20160525151611 83 60 11.0 14.0 0.00 0.00 0.00 100 1010.3
20160525150611 83 59 12.0 15.0 0.00 0.00 0.00 100 1010.5
20160525150112 83 65 12.0 14.0 0.00 0.00 0.00 100 1010.5
20160525145611 83 65 11.0 14.0 0.00 0.00 0.00 100 1010.5
20160525145113 83 58 13.0 14.0 0.00 0.00 0.00 100 1010.5
20160525144612 83 65 13.0 14.0 0.00 0.00 0.00 100 1010.5
20160525143612 84 63 12.0 13.0 0.00 0.00 0.00 100 1010.8
20160525143111 83 69 9.0 13.0 0.00 0.00 0.00 100 1010.8
20160525142611 84 72 11.0 13.0 0.00 0.00 0.00 100 1011.1
20160525142111 84 61 11.0 14.0 0.00 0.00 0.00 100 1011.1
20160525141613 84 69 10.0 14.0 0.00 0.00 0.00 100 1011.1
20160525141111 84 71 11.0 14.0 0.00 0.00 0.00 100 1011.2
20160525135612 84 62 11.0 14.0 0.00 0.00 0.00 100 1011.3
20160525135111 84 63 11.0 14.0 0.00 0.00 0.00 100 1011.3
20160525134611 84 76 11.0 15.0 0.00 0.00 0.00 100 1011.3
20160525134111 84 64 10.0 15.0 0.00 0.00 0.00 100 1011.6
20160525133611 84 59 11.0 13.0 0.00 0.00 0.00 100 1011.6
20160525132611 84 57 12.0 13.0 0.00 0.00 0.00 100 1011.6
20160525132112 84 55 11.0 13.0 0.00 0.00 0.00 100 1011.6
20160525130612 84 64 11.0 13.0 0.00 0.00 0.00 100 1011.8
20160525125611 84 54 12.0 14.0 0.00 0.00 0.00 100 1011.8
20160525125111 84 53 12.0 14.0 0.00 0.00 0.00 100 1011.8
20160525124611 84 61 13.0 13.0 0.00 0.00 0.00 100 1011.8
20160525124112 84 60 11.0 13.0 0.00 0.00 0.00 100 1012.0
20160525123611 84 68 11.0 12.0 0.00 0.00 0.00 100 1012.0
20160525123111 84 68 10.0 12.0 0.00 0.00 0.00 100 1012.0
20160525122611 84 71 8.0 12.0 0.00 0.00 0.00 100 1011.9
20160525122111 84 70 12.0 13.0 0.00 0.00 0.00 100 1011.9
20160525121611 84 65 11.0 13.0 0.00 0.00 0.00 100 1011.9
20160525121111 84 72 11.0 12.0 0.00 0.00 0.00 100 1011.9
20160525120612 84 72 10.0 13.0 0.00 0.00 0.00 100 1011.9
20160525120112 84 76 11.0 13.0 0.00 0.00 0.00 100 1011.9
20160525115611 84 59 11.0 13.0 0.00 0.00 0.00 100 1011.8
20160525115112 84 69 9.0 13.0 0.00 0.00 0.00 100 1011.8
20160525114612 84 63 12.0 12.0 0.00 0.00 0.00 100 1011.8
20160525114111 84 62 10.0 13.0 0.00 0.00 0.00 100 1011.7
20160525113611 84 61 10.0 14.0 0.00 0.00 0.00 100 1011.7
20160525113111 84 66 12.0 14.0 0.00 0.00 0.00 100 1011.7
20160525112611 84 67 11.0 13.0 0.00 0.00 0.00 100 1011.4
20160525112111 84 67 10.0 12.0 0.00 0.00 0.00 100 1011.4
20160525111611 84 69 8.0 11.0 0.00 0.00 0.00 100 1011.4
20160525111112 84 74 9.0 11.0 0.00 0.00 0.00 100 1011.3
20160525110611 84 73 10.0 13.0 0.00 0.00 0.00 100 1011.3
20160525110112 84 60 11.0 13.0 0.00 0.00 0.00 100 1011.3
20160525105611 84 69 10.0 11.0 0.00 0.00 0.00 100 1011.1
20160525105111 84 79 11.0 11.0 0.00 0.00 0.00 100 1011.1
20160525104611 84 63 9.0 13.0 0.00 0.00 0.00 100 1011.1
20160525104111 84 70 11.0 13.0 0.00 0.00 0.00 100 1010.8
20160525103612 84 71 7.0 13.0 0.00 0.00 0.00 100 1010.8
20160525103111 84 69 10.0 13.0 0.00 0.00 0.00 100 1010.8
20160525101611 84 67 10.0 13.0 0.00 0.00 0.00 100 1010.7
20160525101111 84 67 10.0 13.0 0.00 0.00 0.00 100 1010.7
20160525100611 84 84 11.0 13.0 0.00 0.00 0.00 100 1010.7
20160525095611 84 77 8.0 12.0 0.00 0.00 0.00 100 1010.5
20160525095111 84 76 10.0 12.0 0.00 0.00 0.00 100 1010.5
20160525094111 85 71 11.0 12.0 0.00 0.00 0.00 100 1010.3
20160525093611 84 71 9.0 12.0 0.00 0.00 0.00 100 1010.3
20160525093111 85 74 8.0 11.0 0.00 0.00 0.00 100 1010.3
20160525092611 85 76 10.0 12.0 0.00 0.00 0.00 100 1010.2
20160525092111 85 71 8.0 13.0 0.00 0.00 0.00 100 1010.2
20160525091613 85 62 12.0 13.0 0.00 0.00 0.00 100 1010.2
20160525091111 85 74 10.0 12.0 0.00 0.00 0.00 100 1010.2
20160525090612 85 61 11.0 12.0 0.00 0.00 0.00 100 1010.2
20160525090111 85 69 8.0 12.0 0.00 0.00 0.00 100 1010.2
20160525085611 85 70 10.0 12.0 0.00 0.00 0.00 100 1010.1
20160525085112 85 67 11.0 11.0 0.00 0.00 0.00 100 1010.1
20160525084612 85 78 10.0 11.0 0.00 0.00 0.00 100 1010.1
20160525084112 85 74 9.0 11.0 0.00 0.00 0.00 100 1010.0
20160525083611 85 71 10.0 11.0 0.00 0.00 0.00 100 1010.0
20160525083112 85 80 10.0 11.0 0.00 0.00 0.00 100 1010.0
20160525082611 85 72 8.0 11.0 0.00 0.00 0.00 100 1009.8
20160525082112 85 76 8.0 10.0 0.00 0.00 0.00 100 1009.8
20160525081611 85 71 5.0 11.0 0.00 0.00 0.00 100 1009.8
20160525081111 85 75 7.0 12.0 0.00 0.00 0.00 100 1009.7
20160525080611 85 63 10.0 12.0 0.00 0.00 0.00 100 1009.7
20160525080112 85 69 7.0 13.0 0.00 0.00 0.00 100 1009.7
20160525075611 85 77 9.0 13.0 0.00 0.00 0.00 100 1009.7
20160525075111 85 54 11.0 13.0 0.00 0.00 0.00 100 1009.7
20160525074611 86 55 11.0 13.0 0.00 0.00 0.00 100 1009.7
20160525074111 86 50 12.0 13.0 0.00 0.00 0.00 100 1009.4
20160525073612 86 67 9.0 13.0 0.00 0.00 0.00 100 1009.4
20160525073111 86 65 10.0 13.0 0.00 0.00 0.00 100 1009.4
20160525072612 86 59 11.0 13.0 0.00 0.00 0.00 100 1009.3
20160525072111 86 60 10.0 13.0 0.00 0.00 0.00 100 1009.3
20160525071612 86 53 9.0 11.0 0.00 0.00 0.00 100 1009.3
20160525071112 86 68 10.0 11.0 0.00 0.00 0.00 100 1009.2
20160525070611 86 67 7.0 11.0 0.00 0.00 0.00 100 1009.2
20160525070111 86 65 10.0 12.0 0.00 0.00 0.00 100 1009.2
20160525065612 86 80 9.0 12.0 0.00 0.00 0.00 100 1009.1
20160525065111 86 57 11.0 13.0 0.00 0.00 0.00 100 1009.1
20160525064611 86 67 9.0 13.0 0.00 0.00 0.00 100 1009.1
20160525064111 87 67 10.0 13.0 0.00 0.00 0.00 100 1009.0
20160525063611 87 63 11.0 14.0 0.00 0.00 0.00 100 1009.0
20160525063111 87 65 11.0 14.0 0.00 0.00 0.00 100 1009.0
20160525062611 87 67 11.0 14.0 0.00 0.00 0.00 100 1008.9
20160525062112 87 71 11.0 14.0 0.00 0.00 0.00 100 1008.9
20160525061611 87 65 11.0 14.0 0.00 0.00 0.00 100 1008.9
20160525061111 87 65 10.0 14.0 0.00 0.00 0.00 100 1009.0
20160525060611 88 63 10.0 13.0 0.00 0.00 0.00 100 1009.0
20160525060111 88 72 10.0 12.0 0.00 0.00 0.00 100 1009.0
20160525055611 88 74 11.0 12.0 0.00 0.00 0.00 100 1009.1
20160525055111 88 68 10.0 12.0 0.00 0.00 0.00 100 1009.1
20160525054611 88 85 7.0 12.0 0.00 0.00 0.00 100 1009.1
20160525054112 88 76 9.0 11.0 0.00 0.00 0.00 100 1009.3
20160525053611 88 80 10.0 12.0 0.00 0.00 0.00 100 1009.3
20160525053111 88 78 9.0 13.0 0.00 0.00 0.00 100 1009.3
20160525052612 88 74 10.0 13.0 0.00 0.00 0.00 100 1009.3
20160525052114 87 75 11.0 13.0 0.00 0.00 0.00 100 1009.3
20160525051611 88 74 11.0 13.0 0.00 0.00 0.00 100 1009.3
20160525051112 88 65 7.0 12.0 0.00 0.00 0.00 100 1009.4
20160525050612 88 65 10.0 12.0 0.00 0.00 0.00 100 1009.4
20160525050111 88 76 10.0 12.0 0.00 0.00 0.00 100 1009.4
20160525045611 88 72 10.0 12.0 0.00 0.00 0.00 100 1009.6
20160525045111 88 71 11.0 12.0 0.00 0.00 0.00 100 1009.6
20160525044611 88 69 10.0 12.0 0.00 0.00 0.00 100 1009.6
20160525044111 88 61 11.0 12.0 0.00 0.00 0.00 100 1009.7
20160525043611 88 70 7.0 12.0 0.00 0.00 0.00 100 1009.7
20160525043111 88 63 10.0 11.0 0.00 0.00 0.00 100 1009.7
20160525042612 89 77 10.0 12.0 0.00 0.00 0.00 100 1009.8
20160525042111 89 84 10.0 12.0 0.00 0.00 0.00 100 1009.8
20160525041611 89 74 9.0 12.0 0.00 0.00 0.00 100 1009.8
20160525041111 89 79 10.0 11.0 0.00 0.00 0.00 100 1009.9
20160525040612 89 63 10.0 11.0 0.00 0.00 0.00 100 1009.9
20160525040111 89 62 10.0 11.0 0.00 0.00 0.00 100 1009.9
20160525035611 89 65 10.0 11.0 0.00 0.00 0.00 100 1010.1
20160525035112 89 72 9.0 11.0 0.00 0.00 0.00 100 1010.1
20160525034612 88 78 7.0 11.0 0.00 0.00 0.00 100 1010.0
20160525034111 88 61 7.0 11.0 0.00 0.00 0.00 100 1010.2
20160525033612 89 61 10.0 11.0 0.00 0.00 0.00 100 1010.3
20160525033111 88 80 9.0 10.0 0.00 0.00 0.00 100 1010.2
20160525032111 88 64 9.0 11.0 0.00 0.00 0.00 100 1010.3
20160525031611 89 69 9.0 11.0 0.00 0.00 0.00 100 1010.3
20160525031112 89 63 7.0 11.0 0.00 0.00 0.00 100 1010.6
20160525030112 89 79 9.0 12.0 0.00 0.00 0.00 100 1010.6
20160525025611 89 62 8.0 11.0 0.00 0.00 0.00 100 1010.7
20160525025111 89 76 7.0 11.0 0.00 0.00 0.00 100 1010.7
20160525024611 89 80 8.0 11.0 0.00 0.00 0.00 100 1010.7
20160525024112 89 77 7.0 10.0 0.00 0.00 0.00 100 1010.8
20160525023611 89 76 7.0 10.0 0.00 0.00 0.00 100 1010.8
20160525022612 88 81 6.0 10.0 0.00 0.00 0.00 100 1011.1
20160525022111 87 69 8.0 11.0 0.00 0.00 0.00 100 1011.1
20160525021612 88 74 6.0 11.0 0.00 0.00 0.00 100 1011.1
20160525021111 89 64 8.0 11.0 0.00 0.00 0.00 100 1011.3
20160525020611 89 78 7.0 11.0 0.00 0.00 0.00 100 1011.3
20160525020111 89 74 7.0 10.0 0.00 0.00 0.00 100 1011.3
20160525015612 89 69 8.0 10.0 0.00 0.00 0.00 100 1011.4
20160525014612 89 70 9.0 11.0 0.00 0.00 0.00 100 1011.4
20160525013612 88 67 7.0 10.0 0.00 0.00 0.00 100 1011.5
20160525013111 88 80 9.0 10.0 0.00 0.00 0.00 100 1011.5
20160525012611 88 67 9.0 10.0 0.00 0.00 0.00 100 1011.5
20160525012111 88 73 10.0 11.0 0.00 0.00 0.00 100 1011.5
20160525011611 88 72 8.0 11.0 0.00 0.00 0.00 100 1011.5
20160525010612 88 58 10.0 10.0 0.00 0.00 0.00 100 1011.7
20160525010111 88 59 6.0 10.0 0.00 0.00 0.00 100 1011.7
20160525005612 88 75 8.0 10.0 0.00 0.00 0.00 100 1011.6
20160525005111 88 53 8.0 9.0 0.00 0.00 0.00 100 1011.6
20160525004111 88 60 7.0 10.0 0.00 0.00 0.00 100 1011.7
20160525003611 88 62 9.0 10.0 0.00 0.00 0.00 100 1011.7
20160525003111 88 63 7.0 10.0 0.00 0.00 0.00 100 1011.7
20160525002611 88 61 7.0 9.0 0.00 0.00 0.00 100 1011.8
20160525002112 88 73 7.0 9.0 0.00 0.00 0.00 100 1011.8
20160525001611 88 71 7.0 9.0 0.00 0.00 0.00 100 1011.8
20160525001111 88 80 9.0 9.0 0.00 0.00 0.00 100 1011.8
20160525000611 88 61 7.0 9.0 0.00 0.00 0.00 100 1011.8
20160525000111 87 58 9.0 9.0 0.00 0.00 0.00 100 1011.8
20160524235611 88 62 5.0 9.0 0.00 0.00 0.00 100 1011.7
20160524234611 87 62 4.0 9.0 0.00 0.00 0.00 100 1011.7
20160524234111 88 59 7.0 9.0 0.00 0.00 0.00 100 1011.6
20160524233611 88 61 7.0 8.0 0.00 0.00 0.00 100 1011.6
20160524233112 88 76 6.0 8.0 0.00 0.00 0.00 100 1011.6
20160524231611 87 59 6.0 9.0 0.00 0.00 0.00 100 1011.6
20160524231111 88 77 5.0 9.0 0.00 0.00 0.00 100 1011.5
20160524230611 87 82 6.0 9.0 0.00 0.00 0.00 100 1011.5
20160524230111 88 75 7.0 9.0 0.00 0.00 0.00 100 1011.5
20160524225611 88 80 6.0 9.0 0.00 0.00 0.00 100 1011.4
20160524225111 88 84 7.0 8.0 0.00 0.00 0.00 100 1011.4
20160524224611 87 76 6.0 9.0 0.00 0.00 0.00 100 1011.4
20160524223611 87 86 6.0 7.0 0.00 0.00 0.00 100 1011.2
20160524223111 87 87 5.0 8.0 0.00 0.00 0.00 100 1011.2
20160524222611 87 78 6.0 8.0 0.00 0.00 0.00 100 1011.2
20160524222112 87 73 5.0 8.0 0.00 0.00 0.00 100 1011.2
20160524221611 87 81 5.0 7.0 0.00 0.00 0.00 100 1011.2
20160524221111 87 88 6.0 7.0 0.00 0.00 0.00 100 1011.1
20160524220613 87 84 6.0 7.0 0.00 0.00 0.00 100 1011.1
20160524215611 86 82 5.0 7.0 0.00 0.00 0.00 100 1011.1
20160524215111 86 70 6.0 9.0 0.00 0.00 0.00 100 1011.1
20160524214612 86 77 7.0 9.0 0.00 0.00 0.00 100 1011.1
20160524214111 86 85 5.0 10.0 0.00 0.00 0.00 100 1011.0
20160524213612 86 86 8.0 10.0 0.00 0.00 0.00 100 1011.0
20160524213112 86 89 5.0 10.0 0.00 0.00 0.00 100 1011.0
20160524212612 85 78 6.0 10.0 0.00 0.00 0.00 100 1010.9
20160524211611 85 88 6.0 9.0 0.00 0.00 0.00 100 1010.9
20160524211111 85 79 8.0 9.0 0.00 0.00 0.00 100 1010.8
20160524210611 85 82 5.0 9.0 0.00 0.00 0.00 100 1010.8
20160524210111 85 88 6.0 8.0 0.00 0.00 0.00 100 1010.8
20160524205611 84 80 5.0 10.0 0.00 0.00 0.00 100 1010.8
20160524205111 84 78 7.0 10.0 0.00 0.00 0.00 100 1010.8
20160524204611 84 77 7.0 9.0 0.00 0.00 0.00 100 1010.8
20160524204112 84 71 5.0 10.0 0.00 0.00 0.00 100 1010.7
20160524203612 84 70 6.0 10.0 0.00 0.00 0.00 100 1010.7
20160524203111 84 63 6.0 9.0 0.00 0.00 0.00 100 1010.7
20160524201611 84 79 6.0 9.0 0.00 0.00 0.00 100 1010.5
20160524201111 83 89 8.0 9.0 0.00 0.00 0.00 100 1010.3
20160524200611 83 79 7.0 9.0 0.00 0.00 0.00 100 1010.3
20160524200111 83 84 6.0 8.0 0.00 0.00 0.00 100 1010.3
20160524195611 83 76 7.0 8.0 0.00 0.00 0.00 100 1010.2
20160524195111 83 82 8.0 9.0 0.00 0.00 0.00 100 1010.2
20160524194611 83 77 7.0 9.0 0.00 0.00 0.00 100 1010.2
20160524193611 83 83 8.0 10.0 0.00 0.00 0.00 100 1010.1
20160524193111 83 77 6.0 10.0 0.00 0.00 0.00 100 1010.1
20160524192611 83 86 8.0 10.0 0.00 0.00 0.00 100 1009.8
20160524192112 83 79 7.0 10.0 0.00 0.00 0.00 100 1009.8
20160524191612 83 75 6.0 10.0 0.00 0.00 0.00 100 1009.8
20160524191111 83 68 7.0 8.0 0.00 0.00 0.00 100 1009.7
20160524190611 83 78 6.0 7.0 0.00 0.00 0.00 100 1009.7
20160524190111 83 80 6.0 9.0 0.00 0.00 0.00 100 1009.7
20160524185611 83 67 9.0 9.0 0.00 0.00 0.00 100 1009.7
20160524185112 83 61 9.0 9.0 0.00 0.00 0.00 100 1009.7
20160524184611 83 75 7.0 9.0 0.00 0.00 0.00 100 1009.7
20160524183612 83 64 6.0 10.0 0.00 0.00 0.00 100 1009.7
20160524183111 83 60 8.0 10.0 0.00 0.00 0.00 100 1009.7
20160524182611 83 66 6.0 8.0 0.00 0.00 0.00 100 1009.7
20160524182111 83 81 6.0 7.0 0.00 0.00 0.00 100 1009.7
20160524181611 83 78 5.0 7.0 0.00 0.00 0.00 100 1009.7
20160524180611 83 72 6.0 7.0 0.00 0.00 0.00 100 1009.7
20160524180111 83 65 6.0 7.0 0.00 0.00 0.00 100 1009.7
20160524175612 83 61 5.0 7.0 0.00 0.00 0.00 100 1009.7
20160524175111 83 74 5.0 7.0 0.00 0.00 0.00 100 1009.7
20160524174611 83 63 7.0 7.0 0.00 0.00 0.00 100 1009.7
20160524174112 83 73 5.0 7.0 0.00 0.00 0.00 100 1009.7
20160524173611 83 79 4.0 7.0 0.00 0.00 0.00 100 1009.7
20160524173112 83 93 3.0 6.0 0.00 0.00 0.00 100 1009.7
20160524172611 83 88 4.0 6.0 0.00 0.00 0.00 100 1009.7
20160524172111 83 96 4.0 7.0 0.00 0.00 0.00 100 1009.7
20160524171611 83 75 5.0 9.0 0.00 0.00 0.00 100 1009.7
20160524171111 83 86 5.0 9.0 0.00 0.00 0.00 100 1009.7
20160524170611 83 79 4.0 7.0 0.00 0.00 0.00 100 1009.7
20160524170111 83 92 6.0 8.0 0.00 0.00 0.00 100 1009.7
20160524165612 83 70 5.0 9.0 0.00 0.00 0.00 100 1009.5